Time,TemperatureF,DewpointF,PressureIn,WindDirection,WindDirectionDegrees,WindSpeedMPH,WindSpeedGustMPH,Humidity,HourlyPrecipIn,Conditions,Clouds,dailyrainin,SoftwareType,DateUTC
2013-08-21 00:00:00,64.4,62.3,30.05,West,268,0.0,0.0,93,0.00,,---,0.00,VWS V14.00,2013-08-21 04:00:00,
2013-08-21 00:05:00,64.4,62.3,30.05,West,268,0.0,0.0,93,0.00,,---,0.00,VWS V14.00,2013-08-21 04:05:00,
2013-08-21 00:08:00,64.4,62.3,30.05,West,268,0.0,0.0,93,0.00,,---,0.00,VWS V14.00,2013-08-21 04:08:00,
2013-08-21 00:10:00,64.4,62.3,30.05,West,268,0.0,0.0,93,0.00,,---,0.00,VWS V14.00,2013-08-21 04:10:00,
2013-08-21 00:13:00,64.4,62.3,30.05,West,268,0.0,0.0,93,0.00,,---,0.00,VWS V14.00,2013-08-21 04:13:00,
2013-08-21 00:15:00,64.4,62.3,30.05,West,268,0.0,0.0,93,0.00,,---,0.00,VWS V14.00,2013-08-21 04:15:00,
2013-08-21 00:18:00,64.3,61.9,30.05,West,268,0.0,0.0,92,0.00,,---,0.00,VWS V14.00,2013-08-21 04:18:00,
2013-08-21 00:20:00,64.3,61.9,30.05,West,268,0.0,0.0,92,0.00,,---,0.00,VWS V14.00,2013-08-21 04:20:00,
2013-08-21 00:25:00,64.3,61.9,30.05,West,268,0.0,0.0,92,0.00,,---,0.00,VWS V14.00,2013-08-21 04:25:00,
2013-08-21 00:28:00,64.2,61.8,30.05,West,268,0.0,0.0,92,0.00,,---,0.00,VWS V14.00,2013-08-21 04:28:00,
2013-08-21 00:30:00,64.2,61.8,30.05,West,268,0.0,0.0,92,0.00,,---,0.00,VWS V14.00,2013-08-21 04:30:00,
2013-08-21 00:33:00,64.1,61.7,30.05,West,268,0.0,0.0,92,0.00,,---,0.00,VWS V14.00,2013-08-21 04:33:00,
2013-08-21 00:35:00,64.1,61.7,30.05,West,268,0.0,0.0,92,0.00,,---,0.00,VWS V14.00,2013-08-21 04:35:00,
2013-08-21 00:40:00,64.0,61.6,30.05,West,268,0.0,0.0,92,0.00,,---,0.00,VWS V14.00,2013-08-21 04:40:00,
2013-08-21 00:43:00,64.0,61.6,30.05,West,268,0.0,0.0,92,0.00,,---,0.00,VWS V14.00,2013-08-21 04:43:00,
2013-08-21 00:45:00,64.0,61.6,30.05,West,268,0.0,0.0,92,0.00,,---,0.00,VWS V14.00,2013-08-21 04:45:00,
2013-08-21 00:48:00,63.9,61.5,30.05,West,268,0.0,0.0,92,0.00,,---,0.00,VWS V14.00,2013-08-21 04:48:00,
2013-08-21 00:50:00,63.9,61.5,30.05,West,268,0.0,0.0,92,0.00,,---,0.00,VWS V14.00,2013-08-21 04:50:00,
2013-08-21 00:53:00,63.8,61.4,30.05,West,268,0.0,0.0,92,0.00,,---,0.00,VWS V14.00,2013-08-21 04:53:00,
2013-08-21 00:55:00,63.8,61.4,30.05,West,268,0.0,0.0,92,0.00,,---,0.00,VWS V14.00,2013-08-21 04:55:00,
2013-08-21 00:58:00,63.6,61.2,30.05,West,268,0.0,0.0,92,0.00,,---,0.00,VWS V14.00,2013-08-21 04:58:00,
2013-08-21 01:00:00,63.6,61.2,30.05,West,268,0.0,0.0,92,0.00,,---,0.00,VWS V14.00,2013-08-21 05:00:00,
2013-08-21 01:03:00,63.5,61.1,30.05,West,268,0.0,0.0,92,0.00,,---,0.00,VWS V14.00,2013-08-21 05:03:00,
2013-08-21 01:05:00,63.5,61.1,30.05,West,268,0.0,0.0,92,0.00,,---,0.00,VWS V14.00,2013-08-21 05:05:00,
2013-08-21 01:08:00,63.4,61.0,30.05,West,268,0.0,0.0,92,0.00,,---,0.00,VWS V14.00,2013-08-21 05:08:00,
2013-08-21 01:10:00,63.4,61.0,30.05,West,268,0.0,0.0,92,0.00,,---,0.00,VWS V14.00,2013-08-21 05:10:00,
2013-08-21 01:13:00,63.3,60.9,30.05,West,268,0.0,0.0,92,0.00,,---,0.00,VWS V14.00,2013-08-21 05:13:00,
2013-08-21 01:15:00,63.3,60.9,30.05,West,268,0.0,0.0,92,0.00,,---,0.00,VWS V14.00,2013-08-21 05:15:00,
2013-08-21 01:18:00,63.2,60.8,30.05,West,268,0.0,0.0,92,0.00,,---,0.00,VWS V14.00,2013-08-21 05:18:00,
2013-08-21 01:20:00,63.2,60.8,30.05,West,268,0.0,0.0,92,0.00,,---,0.00,VWS V14.00,2013-08-21 05:20:00,
2013-08-21 01:23:00,63.1,60.7,30.05,West,268,0.0,0.0,92,0.00,,---,0.00,VWS V14.00,2013-08-21 05:23:00,
2013-08-21 01:25:00,63.1,60.7,30.05,West,268,0.0,0.0,92,0.00,,---,0.00,VWS V14.00,2013-08-21 05:25:00,
2013-08-21 01:30:00,63.0,60.6,30.05,West,268,0.0,0.0,92,0.00,,---,0.00,VWS V14.00,2013-08-21 05:30:00,
2013-08-21 01:33:00,62.8,60.5,30.05,West,268,0.0,0.0,92,0.00,,---,0.00,VWS V14.00,2013-08-21 05:33:00,
2013-08-21 01:35:00,62.8,60.5,30.05,West,268,0.0,0.0,92,0.00,,---,0.00,VWS V14.00,2013-08-21 05:35:00,
2013-08-21 01:38:00,62.8,60.5,30.05,West,268,0.0,0.0,92,0.00,,---,0.00,VWS V14.00,2013-08-21 05:38:00,
2013-08-21 01:40:00,62.8,60.5,30.05,West,268,0.0,0.0,92,0.00,,---,0.00,VWS V14.00,2013-08-21 05:40:00,
2013-08-21 01:43:00,62.6,60.2,30.05,West,268,0.0,0.0,92,0.00,,---,0.00,VWS V14.00,2013-08-21 05:43:00,
2013-08-21 01:45:00,62.6,60.2,30.05,West,268,0.0,0.0,92,0.00,,---,0.00,VWS V14.00,2013-08-21 05:45:00,
2013-08-21 01:48:00,62.5,60.2,30.05,West,268,0.0,0.0,92,0.00,,---,0.00,VWS V14.00,2013-08-21 05:48:00,
2013-08-21 01:50:00,62.5,60.2,30.05,West,268,0.0,0.0,92,0.00,,---,0.00,VWS V14.00,2013-08-21 05:50:00,
2013-08-21 01:53:00,62.4,60.0,30.05,West,268,0.0,0.0,92,0.00,,---,0.00,VWS V14.00,2013-08-21 05:53:00,
2013-08-21 01:55:00,62.4,60.0,30.05,West,268,0.0,0.0,92,0.00,,---,0.00,VWS V14.00,2013-08-21 05:55:00,
2013-08-21 01:58:00,62.3,60.2,30.05,West,268,0.0,0.0,93,0.00,,---,0.00,VWS V14.00,2013-08-21 05:58:00,
2013-08-21 02:00:00,62.3,60.3,30.05,West,268,0.0,0.0,93,0.00,,---,0.00,VWS V14.00,2013-08-21 06:00:00,
2013-08-21 02:03:00,62.2,59.8,30.05,West,268,0.0,0.0,92,0.00,,---,0.00,VWS V14.00,2013-08-21 06:03:00,
2013-08-21 02:05:00,62.2,59.8,30.05,West,268,0.0,0.0,92,0.00,,---,0.00,VWS V14.00,2013-08-21 06:05:00,
2013-08-21 02:08:00,62.2,59.8,30.05,West,268,0.0,0.0,92,0.00,,---,0.00,VWS V14.00,2013-08-21 06:08:00,
2013-08-21 02:10:00,62.2,59.8,30.05,West,268,0.0,0.0,92,0.00,,---,0.00,VWS V14.00,2013-08-21 06:10:00,
2013-08-21 02:13:00,62.1,60.1,30.05,West,268,0.0,0.0,93,0.00,,---,0.00,VWS V14.00,2013-08-21 06:13:00,
2013-08-21 02:15:00,62.1,60.1,30.05,West,268,0.0,0.0,93,0.00,,---,0.00,VWS V14.00,2013-08-21 06:15:00,
2013-08-21 02:18:00,62.0,60.0,30.06,West,268,0.0,0.0,93,0.00,,---,0.00,VWS V14.00,2013-08-21 06:18:00,
2013-08-21 02:20:00,62.0,60.0,30.06,West,268,0.0,0.0,93,0.00,,---,0.00,VWS V14.00,2013-08-21 06:20:00,
2013-08-21 02:23:00,61.9,59.9,30.06,West,268,0.0,0.0,93,0.00,,---,0.00,VWS V14.00,2013-08-21 06:23:00,
2013-08-21 02:25:00,61.9,59.9,30.06,West,268,0.0,0.0,93,0.00,,---,0.00,VWS V14.00,2013-08-21 06:25:00,
2013-08-21 02:28:00,61.8,59.8,30.06,West,268,0.0,0.0,93,0.00,,---,0.00,VWS V14.00,2013-08-21 06:28:00,
2013-08-21 02:30:00,61.8,59.8,30.06,West,268,0.0,0.0,93,0.00,,---,0.00,VWS V14.00,2013-08-21 06:30:00,
2013-08-21 02:33:00,61.7,59.7,30.06,West,268,0.0,0.0,93,0.00,,---,0.00,VWS V14.00,2013-08-21 06:33:00,
2013-08-21 02:35:00,61.7,59.7,30.06,West,268,0.0,0.0,93,0.00,,---,0.00,VWS V14.00,2013-08-21 06:35:00,
2013-08-21 02:38:00,61.6,59.6,30.06,West,268,0.0,0.0,93,0.00,,---,0.00,VWS V14.00,2013-08-21 06:38:00,
2013-08-21 02:40:00,61.6,59.6,30.06,West,268,0.0,0.0,93,0.00,,---,0.00,VWS V14.00,2013-08-21 06:40:00,
2013-08-21 02:45:00,61.5,59.5,30.06,West,268,0.0,0.0,93,0.00,,---,0.00,VWS V14.00,2013-08-21 06:45:00,
2013-08-21 02:48:00,61.4,59.4,30.06,West,268,0.0,0.0,93,0.00,,---,0.00,VWS V14.00,2013-08-21 06:48:00,
2013-08-21 02:50:00,61.4,59.4,30.06,West,268,0.0,0.0,93,0.00,,---,0.00,VWS V14.00,2013-08-21 06:50:00,
2013-08-21 02:53:00,61.3,59.3,30.06,West,268,0.0,0.0,93,0.00,,---,0.00,VWS V14.00,2013-08-21 06:53:00,
2013-08-21 02:55:00,61.3,59.3,30.06,West,268,0.0,0.0,93,0.00,,---,0.00,VWS V14.00,2013-08-21 06:55:00,
2013-08-21 02:58:00,61.2,59.2,30.06,West,268,0.0,0.0,93,0.00,,---,0.00,VWS V14.00,2013-08-21 06:58:00,
2013-08-21 03:00:00,61.2,59.2,30.06,West,268,0.0,0.0,93,0.00,,---,0.00,VWS V14.00,2013-08-21 07:00:00,
2013-08-21 03:05:00,61.1,59.1,30.06,West,268,0.0,0.0,93,0.00,,---,0.00,VWS V14.00,2013-08-21 07:05:00,
2013-08-21 03:08:00,61.1,59.1,30.06,West,268,0.0,0.0,93,0.00,,---,0.00,VWS V14.00,2013-08-21 07:08:00,
2013-08-21 03:10:00,61.1,59.1,30.06,West,268,0.0,0.0,93,0.00,,---,0.00,VWS V14.00,2013-08-21 07:10:00,
2013-08-21 03:13:00,61.1,59.1,30.06,West,268,0.0,0.0,93,0.00,,---,0.00,VWS V14.00,2013-08-21 07:13:00,
2013-08-21 03:15:00,61.1,59.1,30.06,West,268,0.0,0.0,93,0.00,,---,0.00,VWS V14.00,2013-08-21 07:15:00,
2013-08-21 03:18:00,61.0,59.0,30.06,West,268,0.0,0.0,93,0.00,,---,0.00,VWS V14.00,2013-08-21 07:18:00,
2013-08-21 03:20:00,61.0,59.0,30.06,West,268,0.0,0.0,93,0.00,,---,0.00,VWS V14.00,2013-08-21 07:20:00,
2013-08-21 03:23:00,60.9,58.9,30.06,West,268,0.0,0.0,93,0.00,,---,0.00,VWS V14.00,2013-08-21 07:23:00,
2013-08-21 03:25:00,60.9,58.9,30.06,West,268,0.0,0.0,93,0.00,,---,0.00,VWS V14.00,2013-08-21 07:25:00,
2013-08-21 03:28:00,60.9,58.9,30.06,West,268,0.0,0.0,93,0.00,,---,0.00,VWS V14.00,2013-08-21 07:28:00,
2013-08-21 03:30:00,60.9,58.9,30.06,West,268,0.0,0.0,93,0.00,,---,0.00,VWS V14.00,2013-08-21 07:30:00,
2013-08-21 03:33:00,60.8,59.1,30.06,West,268,0.0,0.0,94,0.00,,---,0.00,VWS V14.00,2013-08-21 07:33:00,
2013-08-21 03:35:00,60.8,59.1,30.06,West,268,0.0,0.0,94,0.00,,---,0.00,VWS V14.00,2013-08-21 07:35:00,
2013-08-21 03:38:00,60.8,59.1,30.06,West,268,0.0,0.0,94,0.00,,---,0.00,VWS V14.00,2013-08-21 07:38:00,
2013-08-21 03:40:00,60.8,59.1,30.06,West,268,0.0,0.0,94,0.00,,---,0.00,VWS V14.00,2013-08-21 07:40:00,
2013-08-21 03:43:00,60.7,59.0,30.06,West,268,0.0,0.0,94,0.00,,---,0.00,VWS V14.00,2013-08-21 07:43:00,
2013-08-21 03:45:00,60.7,59.0,30.06,West,268,0.0,0.0,94,0.00,,---,0.00,VWS V14.00,2013-08-21 07:45:00,
2013-08-21 03:48:00,60.7,59.0,30.05,West,268,0.0,0.0,94,0.00,,---,0.00,VWS V14.00,2013-08-21 07:48:00,
2013-08-21 03:50:00,60.7,59.0,30.05,West,268,0.0,0.0,94,0.00,,---,0.00,VWS V14.00,2013-08-21 07:50:00,
2013-08-21 03:53:00,60.7,59.0,30.06,West,268,0.0,0.0,94,0.00,,---,0.00,VWS V14.00,2013-08-21 07:53:00,
2013-08-21 03:55:00,60.7,59.0,30.06,West,268,0.0,0.0,94,0.00,,---,0.00,VWS V14.00,2013-08-21 07:55:00,
2013-08-21 03:58:00,60.6,58.9,30.06,West,268,0.0,0.0,94,0.00,,---,0.00,VWS V14.00,2013-08-21 07:58:00,
2013-08-21 04:00:00,60.6,58.9,30.06,West,268,0.0,0.0,94,0.00,,---,0.00,VWS V14.00,2013-08-21 08:00:00,
2013-08-21 04:03:00,60.5,58.8,30.06,West,268,0.0,0.0,94,0.00,,---,0.00,VWS V14.00,2013-08-21 08:03:00,
2013-08-21 04:05:00,60.5,58.8,30.06,West,268,0.0,0.0,94,0.00,,---,0.00,VWS V14.00,2013-08-21 08:05:00,
2013-08-21 04:08:00,60.5,58.8,30.06,West,268,0.0,0.0,94,0.00,,---,0.00,VWS V14.00,2013-08-21 08:08:00,
2013-08-21 04:10:00,60.5,58.8,30.06,West,268,0.0,0.0,94,0.00,,---,0.00,VWS V14.00,2013-08-21 08:10:00,
2013-08-21 04:13:00,60.4,58.7,30.06,West,268,0.0,0.0,94,0.00,,---,0.00,VWS V14.00,2013-08-21 08:13:00,
2013-08-21 04:15:00,60.4,58.7,30.06,West,268,0.0,0.0,94,0.00,,---,0.00,VWS V14.00,2013-08-21 08:15:00,
2013-08-21 04:18:00,60.3,58.6,30.07,West,268,0.0,0.0,94,0.00,,---,0.00,VWS V14.00,2013-08-21 08:18:00,
2013-08-21 04:20:00,60.3,58.6,30.07,West,268,0.0,0.0,94,0.00,,---,0.00,VWS V14.00,2013-08-21 08:20:00,
2013-08-21 04:25:00,60.3,58.6,30.07,West,268,0.0,0.0,94,0.00,,---,0.00,VWS V14.00,2013-08-21 08:25:00,
2013-08-21 04:30:00,60.2,58.5,30.06,West,268,0.0,0.0,94,0.00,,---,0.00,VWS V14.00,2013-08-21 08:30:00,
2013-08-21 04:33:00,60.2,58.5,30.07,West,268,0.0,0.0,94,0.00,,---,0.00,VWS V14.00,2013-08-21 08:33:00,
2013-08-21 04:35:00,60.2,58.5,30.07,West,268,0.0,0.0,94,0.00,,---,0.00,VWS V14.00,2013-08-21 08:35:00,
2013-08-21 04:38:00,60.1,58.4,30.06,West,268,0.0,0.0,94,0.00,,---,0.00,VWS V14.00,2013-08-21 08:38:00,
2013-08-21 04:40:00,60.1,58.4,30.06,West,268,0.0,0.0,94,0.00,,---,0.00,VWS V14.00,2013-08-21 08:40:00,
2013-08-21 04:45:00,60.1,58.4,30.07,West,268,0.0,0.0,94,0.00,,---,0.00,VWS V14.00,2013-08-21 08:45:00,
2013-08-21 04:50:00,60.0,58.3,30.07,West,268,0.0,0.0,94,0.00,,---,0.00,VWS V14.00,2013-08-21 08:50:00,
2013-08-21 04:53:00,60.0,58.3,30.07,West,268,0.0,0.0,94,0.00,,---,0.00,VWS V14.00,2013-08-21 08:53:00,
2013-08-21 04:55:00,60.0,58.3,30.07,West,268,0.0,0.0,94,0.00,,---,0.00,VWS V14.00,2013-08-21 08:55:00,
2013-08-21 04:58:00,59.9,58.2,30.07,West,268,0.0,0.0,94,0.00,,---,0.00,VWS V14.00,2013-08-21 08:58:00,
2013-08-21 05:00:00,59.9,58.2,30.07,West,268,0.0,0.0,94,0.00,,---,0.00,VWS V14.00,2013-08-21 09:00:00,
2013-08-21 05:05:00,59.8,58.1,30.07,West,268,0.0,0.0,94,0.00,,---,0.00,VWS V14.00,2013-08-21 09:05:00,
2013-08-21 05:08:00,59.8,58.1,30.07,West,268,0.0,0.0,94,0.00,,---,0.00,VWS V14.00,2013-08-21 09:08:00,
2013-08-21 05:10:00,59.8,58.1,30.07,West,268,0.0,0.0,94,0.00,,---,0.00,VWS V14.00,2013-08-21 09:10:00,
2013-08-21 05:13:00,59.7,58.0,30.07,West,268,0.0,0.0,94,0.00,,---,0.00,VWS V14.00,2013-08-21 09:13:00,
2013-08-21 05:15:00,59.7,58.0,30.07,West,268,0.0,0.0,94,0.00,,---,0.00,VWS V14.00,2013-08-21 09:15:00,
2013-08-21 05:20:00,59.7,58.0,30.07,West,268,0.0,0.0,94,0.00,,---,0.00,VWS V14.00,2013-08-21 09:20:00,
2013-08-21 05:23:00,59.7,58.0,30.07,West,268,0.0,0.0,94,0.00,,---,0.00,VWS V14.00,2013-08-21 09:23:00,
2013-08-21 05:25:00,59.7,58.0,30.07,West,268,0.0,0.0,94,0.00,,---,0.00,VWS V14.00,2013-08-21 09:25:00,
2013-08-21 05:28:00,59.6,57.9,30.07,West,268,0.0,0.0,94,0.00,,---,0.00,VWS V14.00,2013-08-21 09:28:00,
2013-08-21 05:30:00,59.6,57.9,30.07,West,268,0.0,0.0,94,0.00,,---,0.00,VWS V14.00,2013-08-21 09:30:00,
2013-08-21 05:35:00,59.6,58.2,30.07,West,268,0.0,0.0,95,0.00,,---,0.00,VWS V14.00,2013-08-21 09:35:00,
2013-08-21 05:40:00,59.6,58.2,30.07,West,268,0.0,0.0,95,0.00,,---,0.00,VWS V14.00,2013-08-21 09:40:00,
2013-08-21 05:43:00,59.6,58.2,30.07,West,268,0.0,0.0,95,0.00,,---,0.00,VWS V14.00,2013-08-21 09:43:00,
2013-08-21 05:45:00,59.6,58.2,30.07,West,268,0.0,0.0,95,0.00,,---,0.00,VWS V14.00,2013-08-21 09:45:00,
2013-08-21 05:48:00,59.6,58.2,30.07,West,268,0.0,0.0,95,0.00,,---,0.00,VWS V14.00,2013-08-21 09:48:00,
2013-08-21 05:50:00,59.6,58.2,30.07,West,268,0.0,0.0,95,0.00,,---,0.00,VWS V14.00,2013-08-21 09:50:00,
2013-08-21 05:53:00,59.6,58.2,30.08,West,268,0.0,0.0,95,0.00,,---,0.00,VWS V14.00,2013-08-21 09:53:00,
2013-08-21 05:55:00,59.6,58.2,30.08,West,268,0.0,0.0,95,0.00,,---,0.00,VWS V14.00,2013-08-21 09:55:00,
2013-08-21 05:58:00,59.5,58.1,30.08,West,268,0.0,0.0,95,0.00,,---,0.00,VWS V14.00,2013-08-21 09:58:00,
2013-08-21 06:00:00,59.5,58.1,30.08,West,268,0.0,0.0,95,0.00,,---,0.00,VWS V14.00,2013-08-21 10:00:00,
2013-08-21 06:03:00,59.5,58.1,30.08,West,268,0.0,0.0,95,0.00,,---,0.00,VWS V14.00,2013-08-21 10:03:00,
2013-08-21 06:05:00,59.5,58.1,30.08,West,268,0.0,0.0,95,0.00,,---,0.00,VWS V14.00,2013-08-21 10:05:00,
2013-08-21 06:08:00,59.5,58.1,30.08,West,268,0.0,0.0,95,0.00,,---,0.00,VWS V14.00,2013-08-21 10:08:00,
2013-08-21 06:10:00,59.5,58.1,30.08,West,268,0.0,0.0,95,0.00,,---,0.00,VWS V14.00,2013-08-21 10:10:00,
2013-08-21 06:13:00,59.4,58.0,30.08,West,268,0.0,0.0,95,0.00,,---,0.00,VWS V14.00,2013-08-21 10:13:00,
2013-08-21 06:15:00,59.4,58.0,30.08,West,268,0.0,0.0,95,0.00,,---,0.00,VWS V14.00,2013-08-21 10:15:00,
2013-08-21 06:18:00,59.4,58.0,30.08,West,268,0.0,0.0,95,0.00,,---,0.00,VWS V14.00,2013-08-21 10:18:00,
2013-08-21 06:20:00,59.4,58.0,30.08,West,268,0.0,0.0,95,0.00,,---,0.00,VWS V14.00,2013-08-21 10:20:00,
2013-08-21 06:23:00,59.4,58.0,30.08,West,268,0.0,0.0,95,0.00,,---,0.00,VWS V14.00,2013-08-21 10:23:00,
2013-08-21 06:25:00,59.4,58.0,30.08,West,268,0.0,0.0,95,0.00,,---,0.00,VWS V14.00,2013-08-21 10:25:00,
2013-08-21 06:28:00,59.3,57.9,30.08,West,268,0.0,0.0,95,0.00,,---,0.00,VWS V14.00,2013-08-21 10:28:00,
2013-08-21 06:30:00,59.3,57.9,30.08,West,268,0.0,0.0,95,0.00,,---,0.00,VWS V14.00,2013-08-21 10:30:00,
2013-08-21 06:33:00,59.3,57.9,30.08,West,268,0.0,0.0,95,0.00,,---,0.00,VWS V14.00,2013-08-21 10:33:00,
2013-08-21 06:35:00,59.3,57.9,30.08,West,268,0.0,0.0,95,0.00,,---,0.00,VWS V14.00,2013-08-21 10:35:00,
2013-08-21 06:38:00,59.3,57.9,30.08,West,268,0.0,0.0,95,0.00,,---,0.00,VWS V14.00,2013-08-21 10:38:00,
2013-08-21 06:40:00,59.3,57.9,30.08,West,268,0.0,0.0,95,0.00,,---,0.00,VWS V14.00,2013-08-21 10:40:00,
2013-08-21 06:43:00,59.3,57.9,30.09,West,268,0.0,0.0,95,0.00,,---,0.00,VWS V14.00,2013-08-21 10:43:00,
2013-08-21 06:45:00,59.3,57.9,30.09,West,268,0.0,0.0,95,0.00,,---,0.00,VWS V14.00,2013-08-21 10:45:00,
2013-08-21 06:48:00,59.3,57.9,30.09,West,268,0.0,0.0,95,0.00,,---,0.00,VWS V14.00,2013-08-21 10:48:00,
2013-08-21 06:50:00,59.3,57.9,30.09,West,268,0.0,0.0,95,0.00,,---,0.00,VWS V14.00,2013-08-21 10:50:00,
2013-08-21 06:53:00,59.4,58.0,30.09,West,268,0.0,0.0,95,0.00,,---,0.00,VWS V14.00,2013-08-21 10:53:00,
2013-08-21 06:55:00,59.4,58.0,30.09,West,268,0.0,0.0,95,0.00,,---,0.00,VWS V14.00,2013-08-21 10:55:00,
2013-08-21 06:58:00,59.5,58.1,30.09,West,268,0.0,0.0,95,0.00,,---,0.00,VWS V14.00,2013-08-21 10:58:00,
2013-08-21 07:00:00,59.5,58.1,30.09,West,268,0.0,0.0,95,0.00,,---,0.00,VWS V14.00,2013-08-21 11:00:00,
2013-08-21 07:03:00,59.5,58.1,30.09,West,268,0.0,0.0,95,0.00,,---,0.00,VWS V14.00,2013-08-21 11:03:00,
2013-08-21 07:05:00,59.5,58.1,30.09,West,268,0.0,0.0,95,0.00,,---,0.00,VWS V14.00,2013-08-21 11:05:00,
2013-08-21 07:08:00,59.6,58.2,30.09,West,268,0.0,0.0,95,0.00,,---,0.00,VWS V14.00,2013-08-21 11:08:00,
2013-08-21 07:10:00,59.6,58.2,30.09,West,268,0.0,0.0,95,0.00,,---,0.00,VWS V14.00,2013-08-21 11:10:00,
2013-08-21 07:13:00,59.7,58.6,30.09,West,268,0.0,0.0,96,0.00,,---,0.00,VWS V14.00,2013-08-21 11:13:00,
2013-08-21 07:15:00,59.7,58.6,30.09,West,268,0.0,0.0,96,0.00,,---,0.00,VWS V14.00,2013-08-21 11:15:00,
2013-08-21 07:18:00,59.8,58.7,30.09,West,268,0.0,0.0,96,0.00,,---,0.00,VWS V14.00,2013-08-21 11:18:00,
2013-08-21 07:20:00,59.8,58.7,30.09,West,268,0.0,0.0,96,0.00,,---,0.00,VWS V14.00,2013-08-21 11:20:00,
2013-08-21 07:25:00,59.9,58.8,30.09,West,268,0.0,0.0,96,0.00,,---,0.00,VWS V14.00,2013-08-21 11:25:00,
2013-08-21 07:28:00,60.2,59.1,30.09,West,268,0.0,0.0,96,0.00,,---,0.00,VWS V14.00,2013-08-21 11:28:00,
2013-08-21 07:30:00,60.2,59.1,30.09,West,268,0.0,0.0,96,0.00,,---,0.00,VWS V14.00,2013-08-21 11:30:00,
2013-08-21 07:33:00,60.4,59.3,30.09,West,268,0.0,0.0,96,0.00,,---,0.00,VWS V14.00,2013-08-21 11:33:00,
2013-08-21 07:35:00,60.4,59.3,30.09,West,268,0.0,0.0,96,0.00,,---,0.00,VWS V14.00,2013-08-21 11:35:00,
2013-08-21 07:38:00,60.6,59.5,30.09,West,268,0.0,0.0,96,0.00,,---,0.00,VWS V14.00,2013-08-21 11:38:00,
2013-08-21 07:40:00,60.6,59.5,30.09,West,268,0.0,0.0,96,0.00,,---,0.00,VWS V14.00,2013-08-21 11:40:00,
2013-08-21 07:43:00,60.8,59.7,30.09,West,268,0.0,0.0,96,0.00,,---,0.00,VWS V14.00,2013-08-21 11:43:00,
2013-08-21 07:45:00,60.8,59.7,30.09,West,268,0.0,0.0,96,0.00,,---,0.00,VWS V14.00,2013-08-21 11:45:00,
2013-08-21 07:48:00,61.2,60.3,30.09,West,268,0.0,0.0,97,0.00,,---,0.00,VWS V14.00,2013-08-21 11:48:00,
2013-08-21 07:50:00,61.2,60.3,30.09,West,268,0.0,0.0,97,0.00,,---,0.00,VWS V14.00,2013-08-21 11:50:00,
2013-08-21 07:53:00,61.5,60.6,30.09,West,268,0.0,0.0,97,0.00,,---,0.00,VWS V14.00,2013-08-21 11:53:00,
2013-08-21 07:55:00,61.5,60.6,30.09,West,268,0.0,0.0,97,0.00,,---,0.00,VWS V14.00,2013-08-21 11:55:00,
2013-08-21 08:00:00,61.8,60.9,30.10,West,268,0.0,0.0,97,0.00,,---,0.00,VWS V14.00,2013-08-21 12:00:00,
2013-08-21 08:03:00,62.1,61.2,30.10,West,268,0.0,0.0,97,0.00,,---,0.00,VWS V14.00,2013-08-21 12:03:00,
2013-08-21 08:05:00,62.1,61.2,30.10,West,268,0.0,0.0,97,0.00,,---,0.00,VWS V14.00,2013-08-21 12:05:00,
2013-08-21 08:08:00,62.5,61.6,30.09,West,268,0.0,1.0,97,0.00,,---,0.00,VWS V14.00,2013-08-21 12:08:00,
2013-08-21 08:10:00,62.5,61.6,30.09,West,268,0.0,1.0,97,0.00,,---,0.00,VWS V14.00,2013-08-21 12:10:00,
2013-08-21 08:15:00,62.8,61.9,30.09,West,268,0.0,0.0,97,0.00,,---,0.00,VWS V14.00,2013-08-21 12:15:00,
2013-08-21 08:18:00,63.2,62.3,30.10,West,268,0.0,0.0,97,0.00,,---,0.00,VWS V14.00,2013-08-21 12:18:00,
2013-08-21 08:20:00,63.2,62.3,30.10,West,268,0.0,0.0,97,0.00,,---,0.00,VWS V14.00,2013-08-21 12:20:00,
2013-08-21 08:23:00,63.8,62.9,30.10,West,268,0.0,0.0,97,0.00,,---,0.00,VWS V14.00,2013-08-21 12:23:00,
2013-08-21 08:25:00,63.8,62.9,30.10,West,268,0.0,0.0,97,0.00,,---,0.00,VWS V14.00,2013-08-21 12:25:00,
2013-08-21 08:28:00,64.2,63.3,30.10,West,268,0.0,0.0,97,0.00,,---,0.00,VWS V14.00,2013-08-21 12:28:00,
2013-08-21 08:30:00,64.2,63.3,30.10,West,268,0.0,0.0,97,0.00,,---,0.00,VWS V14.00,2013-08-21 12:30:00,
2013-08-21 08:35:00,64.6,63.7,30.10,West,268,0.0,2.0,97,0.00,,---,0.00,VWS V14.00,2013-08-21 12:35:00,
2013-08-21 08:38:00,64.9,64.0,30.10,West,268,0.0,0.0,97,0.00,,---,0.00,VWS V14.00,2013-08-21 12:38:00,
2013-08-21 08:40:00,64.9,64.0,30.10,West,268,0.0,0.0,97,0.00,,---,0.00,VWS V14.00,2013-08-21 12:40:00,
2013-08-21 08:43:00,65.3,64.4,30.10,West,268,0.0,2.0,97,0.00,,---,0.00,VWS V14.00,2013-08-21 12:43:00,
2013-08-21 08:45:00,65.3,64.4,30.10,West,268,0.0,2.0,97,0.00,,---,0.00,VWS V14.00,2013-08-21 12:45:00,
2013-08-21 08:50:00,65.6,64.7,30.10,West,268,0.0,3.0,97,0.00,,---,0.00,VWS V14.00,2013-08-21 12:50:00,
2013-08-21 08:53:00,66.0,65.1,30.10,West,268,0.0,3.0,97,0.00,,---,0.00,VWS V14.00,2013-08-21 12:53:00,
2013-08-21 08:55:00,66.0,65.1,30.10,West,268,0.0,3.0,97,0.00,,---,0.00,VWS V14.00,2013-08-21 12:55:00,
2013-08-21 08:58:00,66.3,65.4,30.09,West,268,0.0,1.0,97,0.00,,---,0.00,VWS V14.00,2013-08-21 12:58:00,
2013-08-21 09:00:00,66.3,65.4,30.09,West,268,0.0,1.0,97,0.00,,---,0.00,VWS V14.00,2013-08-21 13:00:00,
2013-08-21 09:03:00,66.7,65.8,30.09,West,268,0.0,1.0,97,0.00,,---,0.00,VWS V14.00,2013-08-21 13:03:00,
2013-08-21 09:05:00,66.7,65.8,30.09,West,268,0.0,1.0,97,0.00,,---,0.00,VWS V14.00,2013-08-21 13:05:00,
2013-08-21 09:10:00,67.2,66.3,30.09,West,268,0.0,3.0,97,0.00,,---,0.00,VWS V14.00,2013-08-21 13:10:00,
2013-08-21 09:13:00,67.6,66.4,30.09,West,268,0.0,2.0,96,0.00,,---,0.00,VWS V14.00,2013-08-21 13:13:00,
2013-08-21 09:15:00,67.6,66.4,30.09,West,268,0.0,2.0,96,0.00,,---,0.00,VWS V14.00,2013-08-21 13:15:00,
2013-08-21 09:18:00,68.1,66.6,30.09,West,268,0.0,3.0,95,0.00,,---,0.00,VWS V14.00,2013-08-21 13:18:00,
2013-08-21 09:20:00,68.1,66.6,30.09,West,268,0.0,3.0,95,0.00,,---,0.00,VWS V14.00,2013-08-21 13:20:00,
2013-08-21 09:23:00,68.6,66.8,30.09,West,268,0.0,2.0,94,0.00,,---,0.00,VWS V14.00,2013-08-21 13:23:00,
2013-08-21 09:25:00,68.6,66.8,30.09,West,268,0.0,2.0,94,0.00,,---,0.00,VWS V14.00,2013-08-21 13:25:00,
2013-08-21 09:28:00,69.1,66.7,30.09,West,268,0.0,0.0,92,0.00,,---,0.00,VWS V14.00,2013-08-21 13:28:00,
2013-08-21 09:30:00,69.1,66.7,30.09,West,268,0.0,0.0,92,0.00,,---,0.00,VWS V14.00,2013-08-21 13:30:00,
2013-08-21 09:33:00,69.6,67.2,30.09,West,268,0.0,0.0,92,0.00,,---,0.00,VWS V14.00,2013-08-21 13:33:00,
2013-08-21 09:35:00,69.6,67.2,30.09,West,268,0.0,0.0,92,0.00,,---,0.00,VWS V14.00,2013-08-21 13:35:00,
2013-08-21 09:38:00,70.1,67.4,30.10,West,268,0.0,1.0,91,0.00,,---,0.00,VWS V14.00,2013-08-21 13:38:00,
2013-08-21 09:40:00,70.1,67.4,30.10,West,268,0.0,1.0,91,0.00,,---,0.00,VWS V14.00,2013-08-21 13:40:00,
2013-08-21 09:45:00,70.8,67.1,30.10,West,268,0.0,4.0,88,0.00,,---,0.00,VWS V14.00,2013-08-21 13:45:00,
2013-08-21 09:48:00,71.3,67.6,30.09,West,268,0.0,1.0,88,0.00,,---,0.00,VWS V14.00,2013-08-21 13:48:00,
2013-08-21 09:50:00,71.3,67.6,30.09,West,268,0.0,1.0,88,0.00,,---,0.00,VWS V14.00,2013-08-21 13:50:00,
2013-08-21 09:53:00,71.8,67.7,30.09,West,268,0.0,1.0,87,0.00,,---,0.00,VWS V14.00,2013-08-21 13:53:00,
2013-08-21 09:55:00,71.8,67.7,30.09,West,268,0.0,1.0,87,0.00,,---,0.00,VWS V14.00,2013-08-21 13:55:00,
2013-08-21 10:00:00,72.2,67.1,30.09,WSW,253,0.0,4.0,84,0.00,,---,0.00,VWS V14.00,2013-08-21 14:00:00,
2013-08-21 10:03:00,72.8,66.6,30.09,WSW,253,0.0,2.0,81,0.00,,---,0.00,VWS V14.00,2013-08-21 14:03:00,
2013-08-21 10:05:00,72.8,66.6,30.09,WSW,253,0.0,2.0,81,0.00,,---,0.00,VWS V14.00,2013-08-21 14:05:00,
2013-08-21 10:08:00,73.2,66.7,30.09,WSW,253,0.0,1.0,80,0.00,,---,0.00,VWS V14.00,2013-08-21 14:08:00,
2013-08-21 10:10:00,73.2,66.7,30.09,WSW,253,0.0,1.0,80,0.00,,---,0.00,VWS V14.00,2013-08-21 14:10:00,
2013-08-21 10:13:00,73.6,65.6,30.09,WNW,282,1.0,3.0,76,0.00,,---,0.00,VWS V14.00,2013-08-21 14:13:00,
2013-08-21 10:15:00,73.6,65.6,30.09,WNW,282,1.0,3.0,76,0.00,,---,0.00,VWS V14.00,2013-08-21 14:15:00,
2013-08-21 10:20:00,74.2,65.0,30.09,WNW,282,0.0,4.0,73,0.00,,---,0.00,VWS V14.00,2013-08-21 14:20:00,
2013-08-21 10:23:00,74.8,65.6,30.09,WSW,257,0.0,4.0,73,0.00,,---,0.00,VWS V14.00,2013-08-21 14:23:00,
2013-08-21 10:25:00,74.8,65.6,30.09,WSW,257,0.0,4.0,73,0.00,,---,0.00,VWS V14.00,2013-08-21 14:25:00,
2013-08-21 10:28:00,75.3,66.4,30.09,WSW,257,0.0,1.0,74,0.00,,---,0.00,VWS V14.00,2013-08-21 14:28:00,
2013-08-21 10:30:00,75.3,66.4,30.09,WSW,257,0.0,1.0,74,0.00,,---,0.00,VWS V14.00,2013-08-21 14:30:00,
2013-08-21 10:35:00,75.7,66.8,30.09,West,277,0.0,3.0,74,0.00,,---,0.00,VWS V14.00,2013-08-21 14:35:00,
2013-08-21 10:38:00,76.3,65.8,30.09,West,277,3.0,3.0,70,0.00,,---,0.00,VWS V14.00,2013-08-21 14:38:00,
2013-08-21 10:40:00,76.3,65.8,30.09,West,277,3.0,3.0,70,0.00,,---,0.00,VWS V14.00,2013-08-21 14:40:00,
2013-08-21 10:43:00,77.0,65.6,30.09,West,276,0.0,4.0,68,0.00,,---,0.00,VWS V14.00,2013-08-21 14:43:00,
2013-08-21 10:45:00,77.0,65.6,30.09,West,276,0.0,4.0,68,0.00,,---,0.00,VWS V14.00,2013-08-21 14:45:00,
2013-08-21 10:48:00,77.6,67.1,30.09,West,267,0.0,3.0,70,0.00,,---,0.00,VWS V14.00,2013-08-21 14:48:00,
2013-08-21 10:50:00,77.6,67.1,30.09,West,267,0.0,3.0,70,0.00,,---,0.00,VWS V14.00,2013-08-21 14:50:00,
2013-08-21 10:53:00,78.2,65.9,30.09,West,267,1.0,3.0,66,0.00,,---,0.00,VWS V14.00,2013-08-21 14:53:00,
2013-08-21 10:55:00,78.2,65.9,30.09,West,267,1.0,3.0,66,0.00,,---,0.00,VWS V14.00,2013-08-21 14:55:00,
2013-08-21 10:58:00,78.9,65.7,30.09,West,267,0.0,3.0,64,0.00,,---,0.00,VWS V14.00,2013-08-21 14:58:00,
2013-08-21 11:00:00,78.9,65.7,30.09,West,267,0.0,3.0,64,0.00,,---,0.00,VWS V14.00,2013-08-21 15:00:00,
2013-08-21 11:03:00,79.4,66.2,30.09,WNW,296,0.0,3.0,64,0.00,,---,0.00,VWS V14.00,2013-08-21 15:03:00,
2013-08-21 11:05:00,79.4,66.2,30.09,WNW,296,0.0,3.0,64,0.00,,---,0.00,VWS V14.00,2013-08-21 15:05:00,
2013-08-21 11:10:00,80.0,65.4,30.09,WNW,282,4.0,6.0,61,0.00,,---,0.00,VWS V14.00,2013-08-21 15:10:00,
2013-08-21 11:13:00,80.5,66.3,30.08,WSW,256,0.0,6.0,62,0.00,,---,0.00,VWS V14.00,2013-08-21 15:13:00,
2013-08-21 11:15:00,80.5,66.3,30.08,WSW,256,0.0,6.0,62,0.00,,---,0.00,VWS V14.00,2013-08-21 15:15:00,
2013-08-21 11:18:00,80.8,66.6,30.08,WSW,245,0.0,4.0,62,0.00,,---,0.00,VWS V14.00,2013-08-21 15:18:00,
2013-08-21 11:20:00,80.8,66.6,30.08,WSW,245,0.0,4.0,62,0.00,,---,0.00,VWS V14.00,2013-08-21 15:20:00,
2013-08-21 11:23:00,81.1,66.9,30.08,WSW,245,0.0,0.0,62,0.00,,---,0.00,VWS V14.00,2013-08-21 15:23:00,
2013-08-21 11:25:00,81.1,66.9,30.08,WSW,245,0.0,0.0,62,0.00,,---,0.00,VWS V14.00,2013-08-21 15:25:00,
2013-08-21 11:30:00,81.3,66.6,30.08,SW,223,0.0,6.0,61,0.00,,---,0.00,VWS V14.00,2013-08-21 15:30:00,
2013-08-21 11:33:00,81.4,66.2,30.08,WSW,248,0.0,6.0,60,0.00,,---,0.00,VWS V14.00,2013-08-21 15:33:00,
2013-08-21 11:35:00,81.4,66.2,30.08,WSW,248,0.0,6.0,60,0.00,,---,0.00,VWS V14.00,2013-08-21 15:35:00,
2013-08-21 11:38:00,81.6,66.9,30.08,WSW,256,4.0,6.0,61,0.00,,---,0.00,VWS V14.00,2013-08-21 15:38:00,
2013-08-21 11:40:00,81.6,66.9,30.08,WSW,256,4.0,6.0,61,0.00,,---,0.00,VWS V14.00,2013-08-21 15:40:00,
2013-08-21 11:43:00,81.6,64.4,30.08,WSW,256,3.0,5.0,56,0.00,,---,0.00,VWS V14.00,2013-08-21 15:43:00,
2013-08-21 11:45:00,81.6,64.4,30.08,WSW,256,3.0,5.0,56,0.00,,---,0.00,VWS V14.00,2013-08-21 15:45:00,
2013-08-21 11:48:00,81.7,64.5,30.08,WSW,254,0.0,4.0,56,0.00,,---,0.00,VWS V14.00,2013-08-21 15:48:00,
2013-08-21 11:50:00,81.7,64.5,30.08,WSW,254,0.0,4.0,56,0.00,,---,0.00,VWS V14.00,2013-08-21 15:50:00,
2013-08-21 11:53:00,81.9,65.2,30.08,West,279,3.0,4.0,57,0.00,,---,0.00,VWS V14.00,2013-08-21 15:53:00,
2013-08-21 11:55:00,81.9,65.2,30.08,West,279,3.0,4.0,57,0.00,,---,0.00,VWS V14.00,2013-08-21 15:55:00,
2013-08-21 11:58:00,82.0,65.8,30.08,West,279,0.0,3.0,58,0.00,,---,0.00,VWS V14.00,2013-08-21 15:58:00,
2013-08-21 12:00:00,82.0,65.8,30.08,West,279,0.0,3.0,58,0.00,,---,0.00,VWS V14.00,2013-08-21 16:00:00,
2013-08-21 12:05:00,82.2,67.9,30.07,West,279,0.0,1.0,62,0.00,,---,0.00,VWS V14.00,2013-08-21 16:05:00,
2013-08-21 12:08:00,82.1,67.3,30.07,West,269,1.0,3.0,61,0.00,,---,0.00,VWS V14.00,2013-08-21 16:08:00,
2013-08-21 12:10:00,82.1,67.3,30.07,West,269,1.0,3.0,61,0.00,,---,0.00,VWS V14.00,2013-08-21 16:10:00,
2013-08-21 12:13:00,82.1,67.3,30.07,West,269,0.0,1.0,61,0.00,,---,0.00,VWS V14.00,2013-08-21 16:13:00,
2013-08-21 12:15:00,82.1,67.3,30.07,West,269,0.0,1.0,61,0.00,,---,0.00,VWS V14.00,2013-08-21 16:15:00,
2013-08-21 12:18:00,82.1,66.4,30.07,West,269,0.0,1.0,59,0.00,,---,0.00,VWS V14.00,2013-08-21 16:18:00,
2013-08-21 12:20:00,82.1,66.4,30.07,West,269,0.0,1.0,59,0.00,,---,0.00,VWS V14.00,2013-08-21 16:20:00,
2013-08-21 12:23:00,82.2,66.5,30.07,West,266,0.0,3.0,59,0.00,,---,0.00,VWS V14.00,2013-08-21 16:23:00,
2013-08-21 12:25:00,82.2,66.5,30.07,West,266,0.0,3.0,59,0.00,,---,0.00,VWS V14.00,2013-08-21 16:25:00,
2013-08-21 12:28:00,82.3,66.6,30.07,West,266,0.0,1.0,59,0.00,,---,0.00,VWS V14.00,2013-08-21 16:28:00,
2013-08-21 12:30:00,82.3,66.6,30.07,West,266,0.0,1.0,59,0.00,,---,0.00,VWS V14.00,2013-08-21 16:30:00,
2013-08-21 12:33:00,82.2,67.4,30.06,West,266,0.0,1.0,61,0.00,,---,0.00,VWS V14.00,2013-08-21 16:33:00,
2013-08-21 12:35:00,82.2,67.4,30.06,West,266,0.0,1.0,61,0.00,,---,0.00,VWS V14.00,2013-08-21 16:35:00,
2013-08-21 12:40:00,82.2,66.5,30.06,WNW,286,1.0,4.0,59,0.00,,---,0.00,VWS V14.00,2013-08-21 16:40:00,
2013-08-21 12:43:00,82.3,65.6,30.06,WSW,254,0.0,4.0,57,0.00,,---,0.00,VWS V14.00,2013-08-21 16:43:00,
2013-08-21 12:45:00,82.3,65.6,30.06,WSW,254,0.0,4.0,57,0.00,,---,0.00,VWS V14.00,2013-08-21 16:45:00,
2013-08-21 12:48:00,82.4,66.7,30.06,NW,304,0.0,3.0,59,0.00,,---,0.00,VWS V14.00,2013-08-21 16:48:00,
2013-08-21 12:50:00,82.4,66.7,30.06,NW,304,0.0,3.0,59,0.00,,---,0.00,VWS V14.00,2013-08-21 16:50:00,
2013-08-21 12:55:00,82.5,64.7,30.06,NW,304,1.0,3.0,55,0.00,,---,0.00,VWS V14.00,2013-08-21 16:55:00,
2013-08-21 12:58:00,82.6,63.8,30.06,WNW,289,0.0,4.0,53,0.00,,---,0.00,VWS V14.00,2013-08-21 16:58:00,
2013-08-21 13:00:00,82.6,63.8,30.06,WNW,289,0.0,4.0,53,0.00,,---,0.00,VWS V14.00,2013-08-21 17:00:00,
2013-08-21 13:03:00,82.8,63.9,30.06,WNW,289,0.0,1.0,53,0.00,,---,0.00,VWS V14.00,2013-08-21 17:03:00,
2013-08-21 13:05:00,82.8,63.9,30.06,WNW,289,0.0,1.0,53,0.00,,---,0.00,VWS V14.00,2013-08-21 17:05:00,
2013-08-21 13:08:00,82.9,65.1,30.06,WNW,289,0.0,0.0,55,0.00,,---,0.00,VWS V14.00,2013-08-21 17:08:00,
2013-08-21 13:10:00,82.9,65.1,30.06,WNW,289,0.0,0.0,55,0.00,,---,0.00,VWS V14.00,2013-08-21 17:10:00,
2013-08-21 13:15:00,83.1,64.8,30.06,West,274,1.0,6.0,54,0.00,,---,0.00,VWS V14.00,2013-08-21 17:15:00,
2013-08-21 13:18:00,83.2,65.4,30.06,West,265,0.0,5.0,55,0.00,,---,0.00,VWS V14.00,2013-08-21 17:18:00,
2013-08-21 13:20:00,83.2,65.4,30.06,West,265,0.0,5.0,55,0.00,,---,0.00,VWS V14.00,2013-08-21 17:20:00,
2013-08-21 13:23:00,83.4,64.5,30.06,West,262,0.0,2.0,53,0.00,,---,0.00,VWS V14.00,2013-08-21 17:23:00,
2013-08-21 13:25:00,83.4,64.5,30.06,West,262,0.0,2.0,53,0.00,,---,0.00,VWS V14.00,2013-08-21 17:25:00,
2013-08-21 13:28:00,83.5,64.0,30.05,WNW,288,2.0,7.0,52,0.00,,---,0.00,VWS V14.00,2013-08-21 17:28:00,
2013-08-21 13:30:00,83.5,64.0,30.05,WNW,288,2.0,7.0,52,0.00,,---,0.00,VWS V14.00,2013-08-21 17:30:00,
2013-08-21 13:33:00,83.7,63.7,30.05,WSW,254,0.0,9.0,51,0.00,,---,0.00,VWS V14.00,2013-08-21 17:33:00,
2013-08-21 13:35:00,83.7,63.7,30.05,WSW,254,0.0,9.0,51,0.00,,---,0.00,VWS V14.00,2013-08-21 17:35:00,
2013-08-21 13:38:00,83.4,65.6,30.05,WSW,254,0.0,0.0,55,0.00,,---,0.00,VWS V14.00,2013-08-21 17:38:00,
2013-08-21 13:40:00,83.4,65.6,30.05,WSW,254,0.0,0.0,55,0.00,,---,0.00,VWS V14.00,2013-08-21 17:40:00,
2013-08-21 13:45:00,83.6,64.7,30.05,West,277,0.0,6.0,53,0.00,,---,0.00,VWS V14.00,2013-08-21 17:45:00,
2013-08-21 13:48:00,83.7,64.8,30.05,NW,317,3.0,7.0,53,0.00,,---,0.00,VWS V14.00,2013-08-21 17:48:00,
2013-08-21 13:50:00,83.7,64.8,30.05,NW,317,3.0,7.0,53,0.00,,---,0.00,VWS V14.00,2013-08-21 17:50:00,
2013-08-21 13:53:00,83.7,65.3,30.04,West,278,1.0,3.0,54,0.00,,---,0.00,VWS V14.00,2013-08-21 17:53:00,
2013-08-21 14:00:00,84.1,66.7,30.04,WNW,286,0.0,5.0,56,0.00,,---,0.00,VWS V14.00,2013-08-21 18:00:00,
2013-08-21 14:03:00,84.2,64.1,30.05,West,274,0.0,6.0,51,0.00,,---,0.00,VWS V14.00,2013-08-21 18:03:00,
2013-08-21 14:05:00,84.2,64.1,30.05,West,274,0.0,6.0,51,0.00,,---,0.00,VWS V14.00,2013-08-21 18:05:00,
2013-08-21 14:10:00,84.1,64.6,30.04,West,272,0.0,1.0,52,0.00,,---,0.00,VWS V14.00,2013-08-21 18:10:00,
2013-08-21 14:13:00,84.2,65.2,30.04,West,270,0.0,4.0,53,0.00,,---,0.00,VWS V14.00,2013-08-21 18:13:00,
2013-08-21 14:15:00,84.2,65.2,30.04,West,270,0.0,4.0,53,0.00,,---,0.00,VWS V14.00,2013-08-21 18:15:00,
2013-08-21 14:18:00,84.2,64.7,30.04,WSW,257,2.0,9.0,52,0.00,,---,0.00,VWS V14.00,2013-08-21 18:18:00,
2013-08-21 14:20:00,84.2,64.7,30.04,WSW,257,2.0,9.0,52,0.00,,---,0.00,VWS V14.00,2013-08-21 18:20:00,
2013-08-21 14:23:00,84.3,64.2,30.04,WNW,302,0.0,9.0,51,0.00,,---,0.00,VWS V14.00,2013-08-21 18:23:00,
2013-08-21 14:25:00,84.3,64.2,30.04,WNW,302,0.0,9.0,51,0.00,,---,0.00,VWS V14.00,2013-08-21 18:25:00,
2013-08-21 14:30:00,84.2,64.1,30.04,WSW,257,0.0,6.0,51,0.00,,---,0.00,VWS V14.00,2013-08-21 18:30:00,
2013-08-21 14:33:00,84.5,65.0,30.03,West,279,0.0,6.0,52,0.00,,---,0.00,VWS V14.00,2013-08-21 18:33:00,
2013-08-21 14:35:00,84.5,65.0,30.03,West,279,0.0,6.0,52,0.00,,---,0.00,VWS V14.00,2013-08-21 18:35:00,
2013-08-21 14:38:00,84.5,64.4,30.03,WNW,298,4.0,9.0,51,0.00,,---,0.00,VWS V14.00,2013-08-21 18:38:00,
2013-08-21 14:40:00,84.5,64.4,30.03,WNW,298,4.0,9.0,51,0.00,,---,0.00,VWS V14.00,2013-08-21 18:40:00,
2013-08-21 14:45:00,84.7,64.6,30.03,WSW,237,3.0,6.0,51,0.00,,---,0.00,VWS V14.00,2013-08-21 18:45:00,
2013-08-21 14:48:00,84.7,64.0,30.03,WNW,293,4.0,8.0,50,0.00,,---,0.00,VWS V14.00,2013-08-21 18:48:00,
2013-08-21 14:50:00,84.7,64.0,30.03,WNW,293,4.0,8.0,50,0.00,,---,0.00,VWS V14.00,2013-08-21 18:50:00,
2013-08-21 14:53:00,84.6,63.9,30.03,WSW,257,0.0,8.0,50,0.00,,---,0.00,VWS V14.00,2013-08-21 18:53:00,
2013-08-21 14:55:00,84.6,63.9,30.03,WSW,257,0.0,8.0,50,0.00,,---,0.00,VWS V14.00,2013-08-21 18:55:00,
2013-08-21 15:00:00,84.8,65.2,30.03,West,279,0.0,4.0,52,0.00,,---,0.00,VWS V14.00,2013-08-21 19:00:00,
2013-08-21 15:05:00,84.7,64.0,30.03,West,260,4.0,8.0,50,0.00,,---,0.00,VWS V14.00,2013-08-21 19:05:00,
2013-08-21 15:08:00,84.6,63.3,30.03,West,272,0.0,9.0,49,0.00,,---,0.00,VWS V14.00,2013-08-21 19:08:00,
2013-08-21 15:10:00,84.6,63.3,30.03,West,272,0.0,9.0,49,0.00,,---,0.00,VWS V14.00,2013-08-21 19:10:00,
2013-08-21 15:13:00,84.7,64.0,30.03,WNW,288,0.0,6.0,50,0.00,,---,0.00,VWS V14.00,2013-08-21 19:13:00,
2013-08-21 15:15:00,84.7,64.0,30.03,WNW,288,0.0,6.0,50,0.00,,---,0.00,VWS V14.00,2013-08-21 19:15:00,
2013-08-21 15:18:00,84.6,64.5,30.03,West,275,0.0,7.0,51,0.00,,---,0.00,VWS V14.00,2013-08-21 19:18:00,
2013-08-21 15:20:00,84.6,64.5,30.03,West,275,0.0,7.0,51,0.00,,---,0.00,VWS V14.00,2013-08-21 19:20:00,
2013-08-21 15:23:00,84.5,64.4,30.03,WSW,253,1.0,4.0,51,0.00,,---,0.00,VWS V14.00,2013-08-21 19:23:00,
2013-08-21 15:25:00,84.5,64.4,30.03,WSW,253,1.0,4.0,51,0.00,,---,0.00,VWS V14.00,2013-08-21 19:25:00,
2013-08-21 15:28:00,84.4,64.3,30.02,West,266,0.0,5.0,51,0.00,,---,0.00,VWS V14.00,2013-08-21 19:28:00,
2013-08-21 15:30:00,84.4,64.3,30.02,West,266,0.0,5.0,51,0.00,,---,0.00,VWS V14.00,2013-08-21 19:30:00,
2013-08-21 15:35:00,84.3,64.8,30.02,WNW,293,0.0,2.0,52,0.00,,---,0.00,VWS V14.00,2013-08-21 19:35:00,
2013-08-21 15:40:00,84.0,65.6,30.02,West,279,0.0,5.0,54,0.00,,---,0.00,VWS V14.00,2013-08-21 19:40:00,
2013-08-21 15:43:00,84.3,64.8,30.02,WSW,246,1.0,3.0,52,0.00,,---,0.00,VWS V14.00,2013-08-21 19:43:00,
2013-08-21 15:48:00,84.3,65.3,30.02,WSW,251,0.0,1.0,53,0.00,,---,0.00,VWS V14.00,2013-08-21 19:48:00,
2013-08-21 15:55:00,84.2,65.2,30.02,WSW,256,0.0,3.0,53,0.00,,---,0.00,VWS V14.00,2013-08-21 19:55:00,
2013-08-21 15:58:00,84.8,65.2,30.02,WNW,288,0.0,6.0,52,0.00,,---,0.00,VWS V14.00,2013-08-21 19:58:00,
2013-08-21 16:00:00,84.8,65.2,30.02,WNW,288,0.0,6.0,52,0.00,,---,0.00,VWS V14.00,2013-08-21 20:00:00,
2013-08-21 16:03:00,84.7,64.6,30.01,West,259,1.0,6.0,51,0.00,,---,0.00,VWS V14.00,2013-08-21 20:03:00,
2013-08-21 16:05:00,84.7,64.6,30.01,West,259,1.0,6.0,51,0.00,,---,0.00,VWS V14.00,2013-08-21 20:05:00,
2013-08-21 16:10:00,84.8,64.7,30.01,WSW,258,0.0,4.0,51,0.00,,---,0.00,VWS V14.00,2013-08-21 20:10:00,
2013-08-21 16:15:00,84.3,65.9,30.01,WNW,284,0.0,3.0,54,0.00,,---,0.00,VWS V14.00,2013-08-21 20:15:00,
2013-08-21 16:18:00,84.5,66.1,30.01,WSW,254,0.0,7.0,54,0.00,,---,0.00,VWS V14.00,2013-08-21 20:18:00,
2013-08-21 16:20:00,84.5,66.1,30.01,WSW,254,0.0,7.0,54,0.00,,---,0.00,VWS V14.00,2013-08-21 20:20:00,
2013-08-21 16:23:00,84.6,65.1,30.01,West,271,1.0,7.0,52,0.00,,---,0.00,VWS V14.00,2013-08-21 20:23:00,
2013-08-21 16:25:00,84.6,65.1,30.01,West,271,1.0,7.0,52,0.00,,---,0.00,VWS V14.00,2013-08-21 20:25:00,
2013-08-21 16:28:00,84.6,64.5,30.01,WSW,254,0.0,3.0,51,0.00,,---,0.00,VWS V14.00,2013-08-21 20:28:00,
2013-08-21 16:30:00,84.6,64.5,30.01,WSW,254,0.0,3.0,51,0.00,,---,0.00,VWS V14.00,2013-08-21 20:30:00,
2013-08-21 16:33:00,84.1,66.2,30.01,WSW,254,0.0,1.0,55,0.00,,---,0.00,VWS V14.00,2013-08-21 20:33:00,
2013-08-21 16:35:00,84.1,66.2,30.01,WSW,254,0.0,1.0,55,0.00,,---,0.00,VWS V14.00,2013-08-21 20:35:00,
2013-08-21 16:38:00,83.9,64.4,30.00,WSW,244,1.0,5.0,52,0.00,,---,0.00,VWS V14.00,2013-08-21 20:38:00,
2013-08-21 16:40:00,83.9,64.4,30.00,WSW,244,1.0,5.0,52,0.00,,---,0.00,VWS V14.00,2013-08-21 20:40:00,
2013-08-21 16:45:00,84.6,63.9,30.00,WNW,290,0.0,6.0,50,0.00,,---,0.00,VWS V14.00,2013-08-21 20:45:00,
2013-08-21 16:48:00,83.7,65.8,30.00,South,183,0.0,5.0,55,0.00,,---,0.00,VWS V14.00,2013-08-21 20:48:00,
2013-08-21 16:50:00,83.7,65.8,30.00,South,183,0.0,5.0,55,0.00,,---,0.00,VWS V14.00,2013-08-21 20:50:00,
2013-08-21 16:53:00,83.9,63.8,30.00,West,264,0.0,3.0,51,0.00,,---,0.00,VWS V14.00,2013-08-21 20:53:00,
2013-08-21 16:55:00,83.9,63.8,30.00,West,264,0.0,3.0,51,0.00,,---,0.00,VWS V14.00,2013-08-21 20:55:00,
2013-08-21 16:58:00,84.3,64.2,30.00,West,269,0.0,5.0,51,0.00,,---,0.00,VWS V14.00,2013-08-21 20:58:00,
2013-08-21 17:00:00,84.3,64.2,30.00,West,269,0.0,5.0,51,0.00,,---,0.00,VWS V14.00,2013-08-21 21:00:00,
2013-08-21 17:03:00,83.8,64.3,30.00,West,267,0.0,2.0,52,0.00,,---,0.00,VWS V14.00,2013-08-21 21:03:00,
2013-08-21 17:05:00,83.8,64.3,30.00,West,267,0.0,2.0,52,0.00,,---,0.00,VWS V14.00,2013-08-21 21:05:00,
2013-08-21 17:08:00,83.8,65.4,30.00,SW,234,0.0,4.0,54,0.00,,---,0.00,VWS V14.00,2013-08-21 21:08:00,
2013-08-21 17:10:00,83.8,65.4,30.00,SW,234,0.0,4.0,54,0.00,,---,0.00,VWS V14.00,2013-08-21 21:10:00,
2013-08-21 17:13:00,84.2,64.7,30.00,WNW,286,0.0,5.0,52,0.00,,---,0.00,VWS V14.00,2013-08-21 21:13:00,
2013-08-21 17:15:00,84.2,64.7,30.00,WNW,286,0.0,5.0,52,0.00,,---,0.00,VWS V14.00,2013-08-21 21:15:00,
2013-08-21 17:20:00,84.2,64.7,30.00,WSW,246,0.0,7.0,52,0.00,,---,0.00,VWS V14.00,2013-08-21 21:20:00,
2013-08-21 17:23:00,83.9,65.5,30.00,WNW,284,0.0,5.0,54,0.00,,---,0.00,VWS V14.00,2013-08-21 21:23:00,
2013-08-21 17:25:00,83.9,65.5,30.00,WNW,284,0.0,5.0,54,0.00,,---,0.00,VWS V14.00,2013-08-21 21:25:00,
2013-08-21 17:28:00,83.4,66.6,30.00,West,267,1.0,5.0,57,0.00,,---,0.00,VWS V14.00,2013-08-21 21:28:00,
2013-08-21 17:30:00,83.4,66.6,30.00,West,267,1.0,5.0,57,0.00,,---,0.00,VWS V14.00,2013-08-21 21:30:00,
2013-08-21 17:33:00,83.5,66.7,29.99,WNW,293,1.0,5.0,57,0.00,,---,0.00,VWS V14.00,2013-08-21 21:33:00,
2013-08-21 17:35:00,83.5,66.7,29.99,WNW,293,1.0,5.0,57,0.00,,---,0.00,VWS V14.00,2013-08-21 21:35:00,
2013-08-21 17:38:00,83.1,66.3,29.99,WNW,293,0.0,1.0,57,0.00,,---,0.00,VWS V14.00,2013-08-21 21:38:00,
2013-08-21 17:40:00,83.1,66.3,29.99,WNW,293,0.0,1.0,57,0.00,,---,0.00,VWS V14.00,2013-08-21 21:40:00,
2013-08-21 17:43:00,82.9,66.6,30.00,WNW,293,0.0,2.0,58,0.00,,---,0.00,VWS V14.00,2013-08-21 21:43:00,
2013-08-21 17:45:00,82.9,66.6,30.00,WNW,293,0.0,2.0,58,0.00,,---,0.00,VWS V14.00,2013-08-21 21:45:00,
2013-08-21 17:48:00,83.2,66.9,30.00,West,259,3.0,4.0,58,0.00,,---,0.00,VWS V14.00,2013-08-21 21:48:00,
2013-08-21 17:50:00,83.2,66.9,30.00,West,259,3.0,4.0,58,0.00,,---,0.00,VWS V14.00,2013-08-21 21:50:00,
2013-08-21 17:55:00,83.2,66.4,30.00,West,271,0.0,6.0,57,0.00,,---,0.00,VWS V14.00,2013-08-21 21:55:00,
2013-08-21 17:58:00,82.7,66.4,30.00,West,271,0.0,2.0,58,0.00,,---,0.00,VWS V14.00,2013-08-21 21:58:00,
2013-08-21 18:00:00,82.7,66.4,30.00,West,271,0.0,2.0,58,0.00,,---,0.00,VWS V14.00,2013-08-21 22:00:00,
2013-08-21 18:03:00,82.3,67.0,30.00,West,271,0.0,1.0,60,0.00,,---,0.00,VWS V14.00,2013-08-21 22:03:00,
2013-08-21 18:05:00,82.3,67.0,30.00,West,271,0.0,1.0,60,0.00,,---,0.00,VWS V14.00,2013-08-21 22:05:00,
2013-08-21 18:08:00,81.8,67.1,29.99,West,271,0.0,1.0,61,0.00,,---,0.00,VWS V14.00,2013-08-21 22:08:00,
2013-08-21 18:10:00,81.8,67.1,29.99,West,271,0.0,1.0,61,0.00,,---,0.00,VWS V14.00,2013-08-21 22:10:00,
2013-08-21 18:13:00,81.9,67.1,29.99,West,259,0.0,4.0,61,0.00,,---,0.00,VWS V14.00,2013-08-21 22:13:00,
2013-08-21 18:15:00,81.9,67.1,29.99,West,259,0.0,4.0,61,0.00,,---,0.00,VWS V14.00,2013-08-21 22:15:00,
2013-08-21 18:18:00,81.2,66.9,29.99,West,259,0.0,0.0,62,0.00,,---,0.00,VWS V14.00,2013-08-21 22:18:00,
2013-08-21 18:20:00,81.2,66.9,29.99,West,259,0.0,0.0,62,0.00,,---,0.00,VWS V14.00,2013-08-21 22:20:00,
2013-08-21 18:23:00,81.2,67.4,29.99,West,259,1.0,1.0,63,0.00,,---,0.00,VWS V14.00,2013-08-21 22:23:00,
2013-08-21 18:25:00,81.2,67.4,29.99,West,259,1.0,1.0,63,0.00,,---,0.00,VWS V14.00,2013-08-21 22:25:00,
2013-08-21 18:28:00,81.0,67.7,29.99,West,275,0.0,3.0,64,0.00,,---,0.00,VWS V14.00,2013-08-21 22:28:00,
2013-08-21 18:30:00,81.0,67.7,29.99,West,275,0.0,3.0,64,0.00,,---,0.00,VWS V14.00,2013-08-21 22:30:00,
2013-08-21 18:33:00,80.0,67.6,29.99,West,275,0.0,0.0,66,0.00,,---,0.00,VWS V14.00,2013-08-21 22:33:00,
2013-08-21 18:35:00,80.0,67.6,29.99,West,275,0.0,0.0,66,0.00,,---,0.00,VWS V14.00,2013-08-21 22:35:00,
2013-08-21 18:38:00,79.5,67.6,29.99,West,275,0.0,0.0,67,0.00,,---,0.00,VWS V14.00,2013-08-21 22:38:00,
2013-08-21 18:40:00,79.5,67.6,29.99,West,275,0.0,0.0,67,0.00,,---,0.00,VWS V14.00,2013-08-21 22:40:00,
2013-08-21 18:43:00,79.1,67.6,29.99,West,275,0.0,0.0,68,0.00,,---,0.00,VWS V14.00,2013-08-21 22:43:00,
2013-08-21 18:45:00,79.1,67.6,29.99,West,275,0.0,0.0,68,0.00,,---,0.00,VWS V14.00,2013-08-21 22:45:00,
2013-08-21 18:48:00,78.7,67.7,29.99,West,275,0.0,0.0,69,0.00,,---,0.00,VWS V14.00,2013-08-21 22:48:00,
2013-08-21 18:50:00,78.7,67.7,29.99,West,275,0.0,0.0,69,0.00,,---,0.00,VWS V14.00,2013-08-21 22:50:00,
2013-08-21 18:53:00,78.4,67.4,29.99,West,275,0.0,0.0,69,0.00,,---,0.00,VWS V14.00,2013-08-21 22:53:00,
2013-08-21 18:55:00,78.4,67.4,29.99,West,275,0.0,0.0,69,0.00,,---,0.00,VWS V14.00,2013-08-21 22:55:00,
2013-08-21 18:58:00,78.3,67.3,29.99,West,275,0.0,0.0,69,0.00,,---,0.00,VWS V14.00,2013-08-21 22:58:00,
2013-08-21 19:00:00,78.3,67.3,29.99,West,275,0.0,0.0,69,0.00,,---,0.00,VWS V14.00,2013-08-21 23:00:00,
2013-08-21 19:03:00,77.8,67.7,29.98,West,275,0.0,0.0,71,0.00,,---,0.00,VWS V14.00,2013-08-21 23:03:00,
2013-08-21 19:05:00,77.8,67.7,29.98,West,275,0.0,0.0,71,0.00,,---,0.00,VWS V14.00,2013-08-21 23:05:00,
2013-08-21 19:08:00,77.7,68.0,29.98,West,275,0.0,0.0,72,0.00,,---,0.00,VWS V14.00,2013-08-21 23:08:00,
2013-08-21 19:10:00,77.7,68.0,29.98,West,275,0.0,0.0,72,0.00,,---,0.00,VWS V14.00,2013-08-21 23:10:00,
2013-08-21 19:13:00,77.2,68.3,29.99,West,275,0.0,0.0,74,0.00,,---,0.00,VWS V14.00,2013-08-21 23:13:00,
2013-08-21 19:15:00,77.2,68.3,29.99,West,275,0.0,0.0,74,0.00,,---,0.00,VWS V14.00,2013-08-21 23:15:00,
2013-08-21 19:18:00,77.0,67.7,29.98,West,275,0.0,0.0,73,0.00,,---,0.00,VWS V14.00,2013-08-21 23:18:00,
2013-08-21 19:20:00,77.0,67.7,29.98,West,275,0.0,0.0,73,0.00,,---,0.00,VWS V14.00,2013-08-21 23:20:00,
2013-08-21 19:25:00,77.0,67.7,29.98,West,275,0.0,0.0,73,0.00,,---,0.00,VWS V14.00,2013-08-21 23:25:00,
2013-08-21 19:28:00,76.6,68.1,29.98,West,275,0.0,0.0,75,0.00,,---,0.00,VWS V14.00,2013-08-21 23:28:00,
2013-08-21 19:30:00,76.6,68.1,29.98,West,275,0.0,0.0,75,0.00,,---,0.00,VWS V14.00,2013-08-21 23:30:00,
2013-08-21 19:33:00,76.1,68.0,29.99,West,275,0.0,0.0,76,0.00,,---,0.00,VWS V14.00,2013-08-21 23:33:00,
2013-08-21 19:35:00,76.1,68.0,29.99,West,275,0.0,0.0,76,0.00,,---,0.00,VWS V14.00,2013-08-21 23:35:00,
2013-08-21 19:40:00,75.8,67.7,29.99,West,275,0.0,0.0,76,0.00,,---,0.00,VWS V14.00,2013-08-21 23:40:00,
2013-08-21 19:45:00,75.4,68.1,29.99,West,275,0.0,0.0,78,0.00,,---,0.00,VWS V14.00,2013-08-21 23:45:00,
2013-08-21 19:46:00,75.4,68.1,29.99,West,275,0.0,0.0,78,0.00,,---,0.00,VWS V14.00,2013-08-21 23:46:00,
2013-08-21 19:48:00,74.9,67.9,29.99,West,275,0.0,0.0,79,0.00,,---,0.00,VWS V14.00,2013-08-21 23:48:00,
2013-08-21 19:50:00,74.9,67.9,29.99,West,275,0.0,0.0,79,0.00,,---,0.00,VWS V14.00,2013-08-21 23:50:00,
2013-08-21 19:53:00,74.5,67.9,29.99,West,275,0.0,0.0,80,0.00,,---,0.00,VWS V14.00,2013-08-21 23:53:00,
2013-08-21 19:55:00,74.5,67.9,29.99,West,275,0.0,0.0,80,0.00,,---,0.00,VWS V14.00,2013-08-21 23:55:00,
2013-08-21 19:58:00,74.1,67.9,29.99,West,275,0.0,0.0,81,0.00,,---,0.00,VWS V14.00,2013-08-21 23:58:00,
2013-08-21 20:00:00,74.1,67.9,29.99,West,275,0.0,0.0,81,0.00,,---,0.00,VWS V14.00,2013-08-22 00:00:00,
2013-08-21 20:03:00,73.7,67.9,29.99,West,275,0.0,0.0,82,0.00,,---,0.00,VWS V14.00,2013-08-22 00:03:00,
2013-08-21 20:05:00,73.7,67.9,29.99,West,275,0.0,0.0,82,0.00,,---,0.00,VWS V14.00,2013-08-22 00:05:00,
2013-08-21 20:08:00,73.3,67.8,29.99,West,275,0.0,0.0,83,0.00,,---,0.00,VWS V14.00,2013-08-22 00:08:00,
2013-08-21 20:10:00,73.3,67.8,29.99,West,275,0.0,0.0,83,0.00,,---,0.00,VWS V14.00,2013-08-22 00:10:00,
2013-08-21 20:15:00,72.9,67.8,29.99,West,275,0.0,0.0,84,0.00,,---,0.00,VWS V14.00,2013-08-22 00:15:00,
2013-08-21 20:18:00,72.6,67.8,30.00,West,275,0.0,0.0,85,0.00,,---,0.00,VWS V14.00,2013-08-22 00:18:00,
2013-08-21 20:20:00,72.6,67.8,30.00,West,275,0.0,0.0,85,0.00,,---,0.00,VWS V14.00,2013-08-22 00:20:00,
2013-08-21 20:23:00,72.2,67.4,30.00,West,275,0.0,0.0,85,0.00,,---,0.00,VWS V14.00,2013-08-22 00:23:00,
2013-08-21 20:25:00,72.2,67.4,30.00,West,275,0.0,0.0,85,0.00,,---,0.00,VWS V14.00,2013-08-22 00:25:00,
2013-08-21 20:28:00,71.9,67.5,30.00,West,275,0.0,0.0,86,0.00,,---,0.00,VWS V14.00,2013-08-22 00:28:00,
2013-08-21 20:30:00,71.9,67.5,30.00,West,275,0.0,0.0,86,0.00,,---,0.00,VWS V14.00,2013-08-22 00:30:00,
2013-08-21 20:33:00,71.8,67.4,30.00,West,275,0.0,0.0,86,0.00,,---,0.00,VWS V14.00,2013-08-22 00:33:00,
2013-08-21 20:35:00,71.8,67.4,30.00,West,275,0.0,0.0,86,0.00,,---,0.00,VWS V14.00,2013-08-22 00:35:00,
2013-08-21 20:38:00,71.6,67.2,30.00,West,275,0.0,0.0,86,0.00,,---,0.00,VWS V14.00,2013-08-22 00:38:00,
2013-08-21 20:40:00,71.6,67.2,30.00,West,275,0.0,0.0,86,0.00,,---,0.00,VWS V14.00,2013-08-22 00:40:00,
2013-08-21 20:43:00,71.4,67.0,30.00,West,275,0.0,0.0,86,0.00,,---,0.00,VWS V14.00,2013-08-22 00:43:00,
2013-08-21 20:45:00,71.4,67.0,30.00,West,275,0.0,0.0,86,0.00,,---,0.00,VWS V14.00,2013-08-22 00:45:00,
2013-08-21 20:48:00,71.3,66.9,30.00,West,275,0.0,0.0,86,0.00,,---,0.00,VWS V14.00,2013-08-22 00:48:00,
2013-08-21 20:50:00,71.3,66.9,30.00,West,275,0.0,0.0,86,0.00,,---,0.00,VWS V14.00,2013-08-22 00:50:00,
2013-08-21 20:53:00,71.1,67.0,30.00,West,275,0.0,0.0,87,0.00,,---,0.00,VWS V14.00,2013-08-22 00:53:00,
2013-08-21 20:55:00,71.1,67.0,30.00,West,275,0.0,0.0,87,0.00,,---,0.00,VWS V14.00,2013-08-22 00:55:00,
2013-08-21 20:58:00,70.7,66.7,30.00,West,275,0.0,0.0,87,0.00,,---,0.00,VWS V14.00,2013-08-22 00:58:00,
2013-08-21 21:00:00,70.7,66.7,30.00,West,275,0.0,0.0,87,0.00,,---,0.00,VWS V14.00,2013-08-22 01:00:00,
2013-08-21 21:03:00,70.3,66.6,30.00,West,275,0.0,0.0,88,0.00,,---,0.00,VWS V14.00,2013-08-22 01:03:00,
2013-08-21 21:05:00,70.3,66.6,30.00,West,275,0.0,0.0,88,0.00,,---,0.00,VWS V14.00,2013-08-22 01:05:00,
2013-08-21 21:08:00,70.0,66.3,30.00,West,275,0.0,0.0,88,0.00,,---,0.00,VWS V14.00,2013-08-22 01:08:00,
2013-08-21 21:10:00,70.0,66.3,30.00,West,275,0.0,0.0,88,0.00,,---,0.00,VWS V14.00,2013-08-22 01:10:00,
2013-08-21 21:13:00,69.9,66.5,30.00,West,275,0.0,0.0,89,0.00,,---,0.00,VWS V14.00,2013-08-22 01:13:00,
2013-08-21 21:15:00,69.9,66.5,30.00,West,275,0.0,0.0,89,0.00,,---,0.00,VWS V14.00,2013-08-22 01:15:00,
2013-08-21 21:18:00,69.9,66.5,30.00,West,275,0.0,0.0,89,0.00,,---,0.00,VWS V14.00,2013-08-22 01:18:00,
2013-08-21 21:20:00,69.9,66.5,30.00,West,275,0.0,0.0,89,0.00,,---,0.00,VWS V14.00,2013-08-22 01:20:00,
2013-08-21 21:23:00,69.7,66.3,30.00,West,275,0.0,0.0,89,0.00,,---,0.00,VWS V14.00,2013-08-22 01:23:00,
2013-08-21 21:25:00,69.7,66.3,30.00,West,275,0.0,0.0,89,0.00,,---,0.00,VWS V14.00,2013-08-22 01:25:00,
2013-08-21 21:28:00,69.5,66.1,30.00,West,275,0.0,0.0,89,0.00,,---,0.00,VWS V14.00,2013-08-22 01:28:00,
2013-08-21 21:30:00,69.5,66.1,30.00,West,275,0.0,0.0,89,0.00,,---,0.00,VWS V14.00,2013-08-22 01:30:00,
2013-08-21 21:33:00,69.3,65.9,30.00,West,275,0.0,0.0,89,0.00,,---,0.00,VWS V14.00,2013-08-22 01:33:00,
2013-08-21 21:35:00,69.3,65.9,30.00,West,275,0.0,0.0,89,0.00,,---,0.00,VWS V14.00,2013-08-22 01:35:00,
2013-08-21 21:38:00,69.1,65.7,30.00,West,275,0.0,0.0,89,0.00,,---,0.00,VWS V14.00,2013-08-22 01:38:00,
2013-08-21 21:40:00,69.1,65.7,30.00,West,275,0.0,0.0,89,0.00,,---,0.00,VWS V14.00,2013-08-22 01:40:00,
2013-08-21 21:43:00,69.0,65.9,30.00,West,275,0.0,0.0,90,0.00,,---,0.00,VWS V14.00,2013-08-22 01:43:00,
2013-08-21 21:45:00,69.0,65.9,30.00,West,275,0.0,0.0,90,0.00,,---,0.00,VWS V14.00,2013-08-22 01:45:00,
2013-08-21 21:48:00,68.9,65.8,29.99,West,275,0.0,1.0,90,0.00,,---,0.00,VWS V14.00,2013-08-22 01:48:00,
2013-08-21 21:50:00,68.9,65.8,29.99,West,275,0.0,1.0,90,0.00,,---,0.00,VWS V14.00,2013-08-22 01:50:00,
2013-08-21 21:53:00,68.8,65.8,29.99,West,275,0.0,1.0,90,0.00,,---,0.00,VWS V14.00,2013-08-22 01:53:00,
2013-08-21 21:55:00,68.8,65.8,29.99,West,275,0.0,1.0,90,0.00,,---,0.00,VWS V14.00,2013-08-22 01:55:00,
2013-08-21 21:58:00,68.8,65.4,29.99,West,275,0.0,0.0,89,0.00,,---,0.00,VWS V14.00,2013-08-22 01:58:00,
2013-08-21 22:00:00,68.8,65.4,29.99,West,275,0.0,0.0,89,0.00,,---,0.00,VWS V14.00,2013-08-22 02:00:00,
2013-08-21 22:03:00,68.9,65.5,29.99,West,275,0.0,0.0,89,0.00,,---,0.00,VWS V14.00,2013-08-22 02:03:00,
2013-08-21 22:05:00,68.9,65.5,29.99,West,275,0.0,0.0,89,0.00,,---,0.00,VWS V14.00,2013-08-22 02:05:00,
2013-08-21 22:08:00,68.8,65.4,29.99,West,275,0.0,0.0,89,0.00,,---,0.00,VWS V14.00,2013-08-22 02:08:00,
2013-08-21 22:10:00,68.8,65.4,29.99,West,275,0.0,0.0,89,0.00,,---,0.00,VWS V14.00,2013-08-22 02:10:00,
2013-08-21 22:13:00,68.5,65.1,29.99,West,275,0.0,0.0,89,0.00,,---,0.00,VWS V14.00,2013-08-22 02:13:00,
2013-08-21 22:15:00,68.5,65.1,29.99,West,275,0.0,0.0,89,0.00,,---,0.00,VWS V14.00,2013-08-22 02:15:00,
2013-08-21 22:18:00,68.4,65.4,29.99,West,275,0.0,0.0,90,0.00,,---,0.00,VWS V14.00,2013-08-22 02:18:00,
2013-08-21 22:20:00,68.4,65.4,29.99,West,275,0.0,0.0,90,0.00,,---,0.00,VWS V14.00,2013-08-22 02:20:00,
2013-08-21 22:23:00,68.3,65.3,29.99,West,275,0.0,0.0,90,0.00,,---,0.00,VWS V14.00,2013-08-22 02:23:00,
2013-08-21 22:25:00,68.3,65.3,29.99,West,275,0.0,0.0,90,0.00,,---,0.00,VWS V14.00,2013-08-22 02:25:00,
2013-08-21 22:28:00,68.3,65.3,29.99,West,275,0.0,0.0,90,0.00,,---,0.00,VWS V14.00,2013-08-22 02:28:00,
2013-08-21 22:30:00,68.3,65.3,29.99,West,275,0.0,0.0,90,0.00,,---,0.00,VWS V14.00,2013-08-22 02:30:00,
2013-08-21 22:33:00,68.2,65.2,29.99,West,275,0.0,0.0,90,0.00,,---,0.00,VWS V14.00,2013-08-22 02:33:00,
2013-08-21 22:35:00,68.2,65.2,29.99,West,275,0.0,0.0,90,0.00,,---,0.00,VWS V14.00,2013-08-22 02:35:00,
2013-08-21 22:38:00,67.9,64.9,29.99,West,275,0.0,0.0,90,0.00,,---,0.00,VWS V14.00,2013-08-22 02:38:00,
2013-08-21 22:40:00,67.9,64.9,29.99,West,275,0.0,0.0,90,0.00,,---,0.00,VWS V14.00,2013-08-22 02:40:00,
2013-08-21 22:43:00,67.7,65.0,29.99,West,275,0.0,0.0,91,0.00,,---,0.00,VWS V14.00,2013-08-22 02:43:00,
2013-08-21 22:45:00,67.7,65.0,29.99,West,275,0.0,0.0,91,0.00,,---,0.00,VWS V14.00,2013-08-22 02:45:00,
2013-08-21 22:48:00,67.7,65.0,29.99,West,275,0.0,0.0,91,0.00,,---,0.00,VWS V14.00,2013-08-22 02:48:00,
2013-08-21 22:50:00,67.7,65.0,29.99,West,275,0.0,0.0,91,0.00,,---,0.00,VWS V14.00,2013-08-22 02:50:00,
2013-08-21 22:53:00,67.7,65.0,29.99,West,275,0.0,0.0,91,0.00,,---,0.00,VWS V14.00,2013-08-22 02:53:00,
2013-08-21 22:55:00,67.7,65.0,29.99,West,275,0.0,0.0,91,0.00,,---,0.00,VWS V14.00,2013-08-22 02:55:00,
2013-08-21 22:58:00,67.5,64.8,29.99,West,275,0.0,0.0,91,0.00,,---,0.00,VWS V14.00,2013-08-22 02:58:00,
2013-08-21 23:00:00,67.5,64.8,29.99,West,275,0.0,0.0,91,0.00,,---,0.00,VWS V14.00,2013-08-22 03:00:00,
2013-08-21 23:03:00,67.3,64.6,29.99,West,275,0.0,0.0,91,0.00,,---,0.00,VWS V14.00,2013-08-22 03:03:00,
2013-08-21 23:05:00,67.3,64.6,29.99,West,275,0.0,0.0,91,0.00,,---,0.00,VWS V14.00,2013-08-22 03:05:00,
2013-08-21 23:08:00,67.2,64.8,29.99,West,275,0.0,0.0,92,0.00,,---,0.00,VWS V14.00,2013-08-22 03:08:00,
2013-08-21 23:10:00,67.2,64.8,29.99,West,275,0.0,0.0,92,0.00,,---,0.00,VWS V14.00,2013-08-22 03:10:00,
2013-08-21 23:13:00,67.4,64.7,29.98,West,275,0.0,0.0,91,0.00,,---,0.00,VWS V14.00,2013-08-22 03:13:00,
2013-08-21 23:15:00,67.4,64.7,29.98,West,275,0.0,0.0,91,0.00,,---,0.00,VWS V14.00,2013-08-22 03:15:00,
2013-08-21 23:18:00,67.5,64.8,29.98,West,275,0.0,0.0,91,0.00,,---,0.00,VWS V14.00,2013-08-22 03:18:00,
2013-08-21 23:20:00,67.5,64.8,29.98,West,275,0.0,0.0,91,0.00,,---,0.00,VWS V14.00,2013-08-22 03:20:00,
2013-08-21 23:23:00,67.5,64.8,29.98,West,275,0.0,0.0,91,0.00,,---,0.00,VWS V14.00,2013-08-22 03:23:00,
2013-08-21 23:25:00,67.5,64.8,29.98,West,275,0.0,0.0,91,0.00,,---,0.00,VWS V14.00,2013-08-22 03:25:00,
2013-08-21 23:28:00,67.4,64.7,29.98,West,275,0.0,0.0,91,0.00,,---,0.00,VWS V14.00,2013-08-22 03:28:00,
2013-08-21 23:30:00,67.4,64.7,29.98,West,275,0.0,0.0,91,0.00,,---,0.00,VWS V14.00,2013-08-22 03:30:00,
2013-08-21 23:33:00,67.2,64.5,29.98,West,275,0.0,0.0,91,0.00,,---,0.00,VWS V14.00,2013-08-22 03:33:00,
2013-08-21 23:35:00,67.2,64.5,29.98,West,275,0.0,0.0,91,0.00,,---,0.00,VWS V14.00,2013-08-22 03:35:00,
2013-08-21 23:38:00,67.1,64.4,29.98,West,275,0.0,0.0,91,0.00,,---,0.00,VWS V14.00,2013-08-22 03:38:00,
2013-08-21 23:40:00,67.1,64.4,29.98,West,275,0.0,0.0,91,0.00,,---,0.00,VWS V14.00,2013-08-22 03:40:00,
2013-08-21 23:43:00,67.0,64.6,29.98,West,275,0.0,0.0,92,0.00,,---,0.00,VWS V14.00,2013-08-22 03:43:00,
2013-08-21 23:45:00,67.0,64.6,29.98,West,275,0.0,0.0,92,0.00,,---,0.00,VWS V14.00,2013-08-22 03:45:00,
2013-08-21 23:48:00,67.0,64.3,29.98,West,275,0.0,0.0,91,0.00,,---,0.00,VWS V14.00,2013-08-22 03:48:00,
2013-08-21 23:50:00,67.0,64.3,29.98,West,275,0.0,0.0,91,0.00,,---,0.00,VWS V14.00,2013-08-22 03:50:00,
2013-08-21 23:53:00,67.0,64.6,29.98,West,275,0.0,0.0,92,0.00,,---,0.00,VWS V14.00,2013-08-22 03:53:00,
2013-08-21 23:55:00,67.0,64.6,29.98,West,275,0.0,0.0,92,0.00,,---,0.00,VWS V14.00,2013-08-22 03:55:00,
2013-08-21 23:58:00,67.0,64.6,29.98,West,275,0.0,0.0,92,0.00,,---,0.00,VWS V14.00,2013-08-22 03:58:00,